Peoria, IL

6:01 PM CDT on April 23, 2017 (GMT -0500)
Greater Peoria Regional

Weather History for KPIA - February, 2014

Change the Weather History Date:

Thursday, February 13, 2014

  Actual Average Record
Temperature  
Mean Temperature 24 °F 29 °F  
Max Temperature 39 °F 37 °F 65 °F (1938)
Min Temperature 9 °F 21 °F -26 °F (1905)
Degree Days  
Heating Degree Days 41 36  
Month to date heating degree days 709 492  
Since 1 July heating degree days 4577 4013  
Cooling Degree Days 0 0  
Month to date cooling degree days 0 0  
Year to date cooling degree days 0 0  
Moisture  
Dew Point 14 °F    
Average Humidity 66    
Maximum Humidity 76    
Minimum Humidity 55    
Precipitation  
Precipitation T in 0.06 in 0.90 in (1883)
Month to date precipitation 0.91 0.74  
Year to date precipitation 3.01 2.52  
Snow  
Snow T in 0.20 in 7.00 in (2007)
Month to date snowfall 10.5 3.1  
Since 1 July snowfall 37.8 18.2  
Snow Depth 6.00 in    
Sea Level Pressure  
Sea Level Pressure 29.81 in    
Wind  
Wind Speed 9 mph (SW)    
Max Wind Speed 21 mph    
Max Gust Speed 25 mph    
Visibility 8 miles    
Events      
T = Trace of Precipitation, MM = Missing Value Source: NWS Daily Summary

Daily Weather History Graph

Daily Weather History Graph

Search for Another Location

Airport or City:

Trip Planner

Search our weather history database for the weather conditions in past years. The results will help you decide how hot, cold, wet, or windy it might be!

Date:

Astronomy

Feb. 13, 2014 Rise Set
Actual Time 6:55 AM CST 5:31 PM CST
Civil Twilight 6:26 AM CST 5:59 PM CST
Nautical Twilight 5:54 AM CST 6:31 PM CST
Astronomical Twilight 5:23 AM CST 7:03 PM CST
Moon 4:39 PM CST (2/13) 5:48 AM CST (2/13)
Length of Visible Light 11h 32m
Length of Day
10h 36m
Waxing Gibbous, 99% of the Moon is Illuminated
Feb 13
Waxing Gibbous
Feb 14
Full
Feb 22
Last Quarter
Mar 1
New
Mar 8
First Quarter

Hourly Weather History & Observations

Time (CST) Temp. Windchill Dew Point Humidity Pressure Visibility Wind Dir Wind Speed Gust Speed Precip Events Conditions
12:54 AM 14.0 °F 5.1 °F 7.0 °F 74% 30.03 in 7.0 mi SSE 5.8 mph - N/A   Clear
1:54 AM 12.0 °F 5.9 °F 6.1 °F 77% 30.02 in 7.0 mi South 3.5 mph - N/A   Clear
2:54 AM 10.9 °F 2.9 °F 5.0 °F 77% 30.01 in 6.0 mi South 4.6 mph - N/A   Haze
3:54 AM 10.0 °F 0.4 °F 5.0 °F 80% 29.98 in 4.0 mi South 5.8 mph - N/A   Haze
4:54 AM 10.9 °F 0.2 °F 5.0 °F 77% 29.96 in 5.0 mi South 6.9 mph - N/A   Haze
5:54 AM 12.0 °F 4.1 °F 6.1 °F 77% 29.96 in 4.0 mi South 4.6 mph - N/A   Haze
6:54 AM 12.0 °F 1.5 °F 6.1 °F 77% 29.93 in 4.0 mi South 6.9 mph - N/A   Haze
7:54 AM 12.0 °F 1.5 °F 6.1 °F 77% 29.90 in 4.0 mi South 6.9 mph - N/A   Haze
8:54 AM 16.0 °F 5.3 °F 8.1 °F 71% 29.89 in 6.0 mi SSW 8.1 mph - N/A   Haze
9:54 AM 21.0 °F 13.4 °F 10.0 °F 63% 29.86 in 8.0 mi SSW 5.8 mph - N/A   Mostly Cloudy
10:54 AM 24.1 °F 13.1 °F 12.0 °F 60% 29.82 in 10.0 mi SSW 11.5 mph - N/A   Overcast
11:54 AM 27.0 °F 16.1 °F 12.9 °F 56% 29.76 in 10.0 mi SSW 12.7 mph - N/A   Overcast
12:54 PM 32.0 °F 21.2 °F 19.9 °F 61% 29.71 in 10.0 mi SSW 16.1 mph - N/A   Clear
1:54 PM 34.0 °F 23.8 °F 21.0 °F 59% 29.68 in 10.0 mi SSW 16.1 mph - N/A   Clear
2:54 PM 36.0 °F 28.0 °F 21.9 °F 57% 29.65 in 10.0 mi SW 11.5 mph - N/A   Clear
3:54 PM 39.0 °F 31.8 °F 26.1 °F 60% 29.65 in 9.0 mi WSW 11.5 mph 21.9 mph N/A   Clear
4:54 PM 37.9 °F 32.1 °F 26.1 °F 62% 29.66 in 9.0 mi WSW 8.1 mph - N/A   Mostly Cloudy
5:54 PM 37.0 °F 29.8 °F 26.1 °F 65% 29.66 in 10.0 mi WSW 10.4 mph - N/A   Clear
6:54 PM 36.0 °F 28.5 °F 26.1 °F 67% 29.66 in 9.0 mi WSW 10.4 mph - N/A   Clear
7:54 PM 35.1 °F 26.9 °F 26.1 °F 70% 29.69 in 9.0 mi West 11.5 mph - N/A   Partly Cloudy
8:54 PM 32.0 °F 23.0 °F 23.0 °F 69% 29.71 in 10.0 mi NW 11.5 mph - N/A   Clear
9:54 PM 28.0 °F 17.0 °F 16.0 °F 61% 29.73 in 10.0 mi NW 13.8 mph 21.9 mph N/A   Clear
10:54 PM 24.1 °F 14.4 °F 12.9 °F 62% 29.74 in 10.0 mi NW 9.2 mph - N/A   Clear
11:54 PM 21.9 °F 11.0 °F 10.9 °F 63% 29.75 in 10.0 mi WNW 10.4 mph - N/A   Clear